[[{"header":{"parameterUnit":"m.s-1","parameterCategory":1,"la1":30.2991,"la2":30.254,"lo1":-89.0895,"lo2":-89.0444,"dy":0.0017,"dx":0.0017,"nx":28,"ny":28,"refTime":"2024-08-14T09:00:00:Z","depth":0,"parameterNumber":2,"parameterNumberName":"U-component_of_WINDS"},"data":[0,0,0,0,0,0,0,0,0,0,0,0,0,0,0,0,0,0,0,0,0,0,0,0,0,0,0,0,0,0,0,0,0,0,0,0,0,0,0,0,0,0,0,0,0,0,0,0,0,0,0,0,0,0,0,0,0,0,2.902,2.9021,0,2.9092,2.9093,2.9094,2.9023,2.902,2.9018,2.9015,2.9091,2.9095,2.91,0,0,0,0,0,0,0,0,0,0,0,0,0,2.8824,2.8828,2.902,2.9021,2.9022,2.9092,2.9093,2.9094,2.9024,2.902,2.9017,2.9014,2.9089,2.9095,2.91,0,0,0,0,0,0,0,0,0,0,0,0,0,2.8904,2.8829,2.902,2.8995,2.8994,2.9092,2.9093,2.9094,2.9024,2.902,2.9016,2.9012,2.9087,2.9094,2.9101,2.9227,0,0,2.9122,2.9125,0,0,0,0,0,0,0,0,2.89,2.8911,2.8998,2.8997,2.8996,2.9044,2.9051,2.9139,2.9025,2.9013,2.9015,2.901,2.9079,2.9086,2.9109,2.9231,2.9234,2.9123,2.9127,2.913,2.9132,0,0,0,0,0,0,0,2.8894,2.8908,2.9048,2.8999,2.8998,2.8981,2.8988,2.9068,2.9068,2.9014,2.9009,2.9018,2.9077,2.9102,2.911,2.9235,2.9122,2.9129,2.9133,2.9135,2.9465,2.947,0,0,0,0,0,0,2.8891,2.8904,2.9046,2.9051,2.8936,2.8988,2.8996,2.9033,2.9067,2.9069,2.9022,2.9015,2.9093,2.9102,2.9112,2.9263,2.913,2.9136,2.914,2.9461,2.9466,2.9471,0,0,0,0,0,0,2.8887,2.8904,2.9043,2.8976,2.8992,2.8996,2.9038,2.9037,2.9061,2.9073,2.9073,2.9047,2.909,2.9103,2.9199,2.9264,2.9139,2.9146,2.9455,2.9463,2.9469,2.9565,0,0,0,0,0,0,2.8882,2.8903,2.8951,2.8977,2.8996,2.9128,2.9042,2.9041,2.9073,2.9065,2.9097,2.9098,2.9087,2.9189,2.9206,2.9272,2.9151,2.945,2.9459,2.9467,2.9556,2.9574,2.959,0,0,0,0,0,2.8875,2.8975,2.8954,2.8971,2.9055,2.9132,2.9143,2.9128,2.9079,2.9127,2.9135,2.9097,2.9255,2.92,2.9218,2.9287,2.9445,2.9456,2.9466,2.9548,2.957,2.9589,0,0,0,0,0,0,2.8956,2.8978,2.8954,2.9066,2.9098,2.912,2.918,2.9152,2.9199,2.9189,2.9168,2.9176,2.9279,2.9292,2.9231,2.9411,2.9342,2.9357,2.9398,2.942,2.9436,2.9431,2.9157,0,0,0,0,0,2.8987,2.9047,2.9063,2.916,2.9178,2.9177,2.9209,2.9195,2.9227,2.9241,2.9255,2.9289,2.9346,2.9384,2.9437,2.9558,2.9564,2.9614,2.9631,2.9645,2.9658,2.9723,2.9746,2.9506,2.9505,2.9505,0,0,2.9052,2.9071,2.911,2.9177,2.92,2.9263,2.9188,2.9258,2.9305,2.9251,2.9343,2.9356,2.9392,2.9501,2.955,2.9516,2.9726,2.9658,2.9669,2.9674,2.9736,2.9759,2.9779,2.9513,2.9511,2.951,0,0,2.9202,2.9222,2.9305,2.933,2.9366,2.9364,2.9385,2.9412,2.9418,2.951,2.9471,2.9527,2.9625,2.9653,2.9679,2.9841,2.9809,2.9859,2.9948,3.0012,3.0031,3.0048,3.0105,3.0126,2.9872,2.9872,2.9872,0,2.9277,2.937,2.9352,2.9425,2.9456,2.941,2.9494,2.9519,2.9571,2.9594,2.9555,2.9678,2.9699,2.9814,2.9854,2.9877,2.99,2.9855,3.0029,3.0046,3.0061,3.0116,3.0138,2.9878,2.9877,2.9877,2.9876,0,2.9462,2.9527,2.959,2.964,2.9679,2.9757,2.9751,2.9793,2.9775,2.9779,2.9874,2.9897,2.9955,2.9981,2.9965,3.0095,3.0073,3.0032,2.9962,3.009,3.0141,3.0162,2.9887,2.9884,2.9883,2.9881,0,0,2.9664,2.9703,2.9727,2.9749,2.9786,2.9836,2.9913,2.9969,3.0005,3.0042,3.0107,3.0192,3.0155,3.0185,3.0172,3.0229,3.0355,3.0181,3.0182,3.0212,3.05,3.053,3.0554,3.0335,3.0338,3.0342,3.0497,0,2.9814,2.9946,2.9933,3.0059,3.012,3.0078,3.0145,3.0175,3.0181,3.0234,3.024,3.0301,3.0247,3.0265,3.0319,3.0329,3.0413,3.0317,3.0394,3.0397,3.0386,3.0581,3.0613,3.0758,3.0517,3.052,3.0523,0,3.0007,3.0051,3.0183,3.0211,3.0236,3.0296,3.0346,3.0397,3.0431,3.0431,3.0467,3.0444,3.0522,3.0452,3.056,3.0495,3.0526,3.0536,3.0541,3.0547,3.0467,3.0592,3.0804,3.0826,3.0554,3.0552,3.0549,0,3.0141,3.0233,3.0324,3.0345,3.038,3.0423,3.044,3.047,3.0504,3.0549,3.0571,3.0624,3.0654,3.0696,3.0689,3.0638,3.0799,3.0728,3.0802,3.0802,3.0837,3.0835,3.1056,3.0859,3.0858,3.0858,3.0857,0,3.031,3.0392,3.0385,3.0441,3.0532,3.0517,3.0608,3.062,3.0647,3.0705,3.0673,3.0728,3.0716,3.0771,3.0767,3.0857,3.0871,3.0873,3.0871,3.0876,3.0876,3.0895,3.0885,3.0864,3.0862,3.0861,3.086,0,3.0474,3.0472,3.0569,3.0594,3.0602,3.0669,3.069,3.0744,3.0747,3.0821,3.0838,3.0844,3.0908,3.0905,3.0978,3.0974,3.1086,3.1072,3.1074,3.1071,3.1145,3.1138,3.1386,3.1418,3.12,3.1203,3.1204,0,3.0581,3.0644,3.0676,3.0712,3.0732,3.0791,3.0826,3.0813,3.0851,3.0895,3.0944,3.1004,3.1052,3.1156,3.1167,3.1223,3.121,3.1294,3.1218,3.1221,3.1211,3.1207,3.1213,3.1308,3.131,3.1312,3.1314,0,3.0773,3.0769,3.082,3.0872,3.0914,3.0955,3.0991,3.1023,3.1015,3.106,3.1124,3.1161,3.1235,3.1296,3.135,3.1368,3.134,3.1338,3.1358,3.1363,3.1361,3.1363,3.1113,3.1332,3.133,3.1329,3.1328,3.1327,3.0911,3.0965,3.0996,3.1055,3.1081,3.1116,3.1168,3.1177,3.1231,3.1289,3.1279,3.1352,3.1385,3.1454,3.1477,3.1534,3.1505,3.1534,3.1541,3.1548,3.1557,3.1353,3.1544,3.1544,3.1543,3.1543,3.1543,0,3.11,3.1118,3.1172,3.1225,3.1271,3.1241,3.128,3.1321,3.1385,3.1418,3.1466,3.1541,3.16,3.1616,3.1673,3.1716,3.1705,3.1732,3.1728,3.1733,3.158,3.1557,3.174,3.174,3.174,3.174,3.1739,3.1739,3.1204,3.1293,3.1294,3.1396,3.1413,3.1483,3.1509,3.1541,3.1568,3.1652,3.1701,3.1711,3.1738,3.1797,3.185,3.1854,3.1876,3.1908,3.1906,3.1763,3.1743,3.1724,3.1702,3.1913,3.1913,3.2054,3.2055,3.2056]},{"header":{"parameterUnit":"m.s-1","parameterCategory":1,"la1":30.2991,"la2":30.254,"lo1":-89.0895,"lo2":-89.0444,"dy":0.0017,"dx":0.0017,"nx":28,"ny":28,"refTime":"2024-08-14T09:00:00:Z","depth":0,"parameterNumber":3,"parameterNumberName":"V-component_of_WINDS"},"data":[0,0,0,0,0,0,0,0,0,0,0,0,0,0,0,0,0,0,0,0,0,0,0,0,0,0,0,0,0,0,0,0,0,0,0,0,0,0,0,0,0,0,0,0,0,0,0,0,0,0,0,0,0,0,0,0,0,0,-1.123,-1.1231,0,-1.1329,-1.133,-1.1331,-1.1351,-1.135,-1.1349,-1.1348,-1.1452,-1.1456,-1.1459,0,0,0,0,0,0,0,0,0,0,0,0,0,-1.1059,-1.1062,-1.1229,-1.1231,-1.1232,-1.1329,-1.133,-1.1331,-1.1351,-1.135,-1.1349,-1.1348,-1.1451,-1.1455,-1.1459,0,0,0,0,0,0,0,0,0,0,0,0,0,-1.1143,-1.1063,-1.1229,-1.1253,-1.1256,-1.1328,-1.133,-1.1332,-1.1351,-1.135,-1.1349,-1.1347,-1.145,-1.1455,-1.146,-1.1516,0,0,-1.1476,-1.1478,0,0,0,0,0,0,0,0,-1.1138,-1.1149,-1.1248,-1.1252,-1.1255,-1.1326,-1.1308,-1.1394,-1.1351,-1.1315,-1.1348,-1.1347,-1.1411,-1.142,-1.1441,-1.1521,-1.1525,-1.1476,-1.148,-1.1482,-1.1483,0,0,0,0,0,0,0,-1.1132,-1.1145,-1.1269,-1.125,-1.1254,-1.126,-1.127,-1.1324,-1.1369,-1.1318,-1.132,-1.1331,-1.1413,-1.1436,-1.1444,-1.1527,-1.1476,-1.1481,-1.1484,-1.1486,-1.1659,-1.166,0,0,0,0,0,0,-1.1122,-1.114,-1.1266,-1.1272,-1.1193,-1.1264,-1.1276,-1.1305,-1.1368,-1.1377,-1.1332,-1.1332,-1.1427,-1.1437,-1.1447,-1.1518,-1.1482,-1.1487,-1.149,-1.1657,-1.1659,-1.166,0,0,0,0,0,0,-1.1118,-1.1133,-1.1262,-1.1207,-1.1223,-1.1268,-1.13,-1.1307,-1.133,-1.1379,-1.1387,-1.1347,-1.1427,-1.144,-1.1499,-1.1521,-1.1489,-1.1494,-1.1655,-1.1658,-1.166,-1.1658,0,0,0,0,0,0,-1.1113,-1.1132,-1.1153,-1.1207,-1.1226,-1.1311,-1.1302,-1.131,-1.1339,-1.1339,-1.1395,-1.1403,-1.1427,-1.1491,-1.1504,-1.1528,-1.1498,-1.1654,-1.1656,-1.1659,-1.1656,-1.166,-1.1663,0,0,0,0,0,-1.1107,-1.1149,-1.1154,-1.1169,-1.1253,-1.1312,-1.1323,-1.1349,-1.134,-1.1363,-1.1394,-1.1401,-1.1517,-1.1497,-1.1512,-1.1538,-1.1652,-1.1656,-1.1659,-1.1655,-1.1659,-1.1663,0,0,0,0,0,0,-1.1097,-1.1156,-1.1162,-1.1223,-1.1262,-1.1315,-1.1344,-1.1353,-1.1396,-1.1395,-1.1426,-1.1439,-1.1496,-1.1523,-1.1499,-1.1596,-1.1584,-1.159,-1.1576,-1.1581,-1.1584,-1.1576,-1.1502,0,0,0,0,0,-1.1101,-1.1143,-1.1193,-1.1242,-1.1261,-1.1299,-1.1325,-1.1342,-1.1385,-1.1402,-1.1437,-1.1479,-1.1525,-1.1554,-1.1599,-1.166,-1.1673,-1.1686,-1.1689,-1.1691,-1.1697,-1.1732,-1.1738,-1.1671,-1.1671,-1.1671,0,0,-1.1112,-1.1149,-1.1174,-1.124,-1.1273,-1.1316,-1.1313,-1.1359,-1.1392,-1.1409,-1.1466,-1.1494,-1.1543,-1.1603,-1.1632,-1.1627,-1.1718,-1.1695,-1.1697,-1.1701,-1.1736,-1.1742,-1.1748,-1.1673,-1.1673,-1.1672,0,0,-1.1153,-1.1185,-1.1229,-1.1261,-1.131,-1.1335,-1.1346,-1.1398,-1.1417,-1.1475,-1.1489,-1.1529,-1.1606,-1.1641,-1.1668,-1.1722,-1.1731,-1.1736,-1.1754,-1.1788,-1.1793,-1.1798,-1.1818,-1.1824,-1.1741,-1.1741,-1.1741,0,-1.1159,-1.1224,-1.125,-1.1296,-1.1325,-1.1342,-1.1387,-1.1418,-1.1479,-1.1499,-1.1493,-1.1592,-1.1626,-1.1695,-1.1708,-1.1729,-1.1743,-1.173,-1.179,-1.1795,-1.18,-1.1819,-1.1827,-1.1741,-1.1741,-1.1741,-1.1741,0,-1.1231,-1.1276,-1.1305,-1.1363,-1.1396,-1.1441,-1.1475,-1.1505,-1.1519,-1.1545,-1.1604,-1.1645,-1.1699,-1.1716,-1.1731,-1.1788,-1.1784,-1.1783,-1.1773,-1.1806,-1.1825,-1.1833,-1.1742,-1.1742,-1.1742,-1.1742,0,0,-1.1268,-1.134,-1.135,-1.1377,-1.1432,-1.1468,-1.1514,-1.1566,-1.1592,-1.1633,-1.1674,-1.1739,-1.1739,-1.1771,-1.1789,-1.1819,-1.186,-1.1815,-1.1817,-1.1822,-1.1926,-1.1926,-1.1934,-1.1866,-1.1867,-1.1868,-1.1922,0,-1.1316,-1.1398,-1.1423,-1.1492,-1.1534,-1.1551,-1.1591,-1.163,-1.1656,-1.1696,-1.1725,-1.1771,-1.1767,-1.1786,-1.1816,-1.1848,-1.1881,-1.1845,-1.1904,-1.1906,-1.1892,-1.1944,-1.1945,-1.1993,-1.193,-1.1931,-1.1932,0,-1.1383,-1.1425,-1.1498,-1.1548,-1.1567,-1.1603,-1.1652,-1.1691,-1.1735,-1.1752,-1.1787,-1.1803,-1.1853,-1.1838,-1.1908,-1.1883,-1.1909,-1.1928,-1.1931,-1.1938,-1.1921,-1.1953,-1.201,-1.2017,-1.1943,-1.1943,-1.1942,0,-1.1403,-1.1479,-1.1532,-1.1555,-1.1614,-1.1639,-1.1665,-1.1709,-1.1739,-1.1782,-1.1802,-1.1851,-1.1878,-1.1916,-1.1945,-1.1932,-1.2013,-1.2001,-1.2029,-1.2028,-1.2046,-1.2044,-1.2107,-1.2061,-1.2061,-1.2061,-1.2061,0,-1.1454,-1.1499,-1.1542,-1.1575,-1.1626,-1.1654,-1.1704,-1.1731,-1.1769,-1.1809,-1.1826,-1.1863,-1.1899,-1.1941,-1.1964,-1.2019,-1.2031,-1.2046,-1.2052,-1.2045,-1.2043,-1.2063,-1.206,-1.2063,-1.2062,-1.2062,-1.2062,0,-1.1486,-1.1517,-1.1577,-1.1628,-1.1642,-1.1677,-1.1722,-1.1755,-1.1781,-1.1831,-1.1844,-1.1885,-1.1935,-1.1968,-1.2032,-1.2048,-1.2108,-1.2112,-1.2092,-1.2095,-1.2122,-1.2119,-1.22,-1.2213,-1.2157,-1.2158,-1.2158,0,-1.1517,-1.1551,-1.1606,-1.1634,-1.166,-1.1703,-1.1733,-1.1763,-1.1794,-1.1847,-1.1874,-1.1926,-1.1968,-1.2048,-1.2084,-1.2134,-1.214,-1.2165,-1.2147,-1.214,-1.2141,-1.2139,-1.2143,-1.2168,-1.2168,-1.2169,-1.2169,0,-1.1569,-1.1582,-1.1625,-1.1672,-1.1707,-1.1747,-1.1786,-1.1808,-1.1844,-1.1878,-1.1929,-1.1962,-1.2027,-1.2078,-1.2131,-1.2159,-1.2171,-1.2174,-1.2183,-1.2177,-1.2164,-1.2172,-1.2101,-1.2172,-1.2172,-1.2172,-1.2172,-1.2171,-1.1602,-1.1633,-1.1677,-1.1723,-1.1756,-1.1792,-1.1826,-1.1856,-1.1899,-1.1954,-1.1969,-1.2022,-1.2067,-1.2139,-1.2168,-1.2211,-1.2208,-1.2221,-1.2225,-1.2228,-1.2228,-1.2157,-1.2221,-1.2221,-1.2221,-1.2221,-1.222,0,-1.1655,-1.1684,-1.1726,-1.178,-1.1817,-1.1824,-1.1868,-1.1898,-1.1945,-1.1985,-1.2026,-1.2085,-1.2135,-1.2175,-1.2226,-1.2253,-1.226,-1.2266,-1.2265,-1.2271,-1.2228,-1.2215,-1.226,-1.226,-1.226,-1.226,-1.226,-1.2259,-1.1687,-1.1741,-1.176,-1.183,-1.1859,-1.191,-1.1935,-1.1969,-1.2001,-1.2066,-1.2107,-1.2132,-1.2173,-1.2227,-1.2274,-1.2284,-1.2303,-1.2308,-1.2319,-1.2278,-1.2274,-1.227,-1.2258,-1.2311,-1.2311,-1.236,-1.236,-1.236]}]]